TimeCDT,TemperatureF,Dew PointF,Humidity,Sea Level PressureIn,VisibilityMPH,Wind Direction,Wind SpeedMPH,Gust SpeedMPH,PrecipitationIn,Events,Conditions,WindDirDegrees,DateUTC
12:15 AM,33.8,30.2,87,29.91,10.0,Calm,Calm,-,N/A,,Clear,0,2012-10-15 05:15:00
12:35 AM,30.2,28.4,93,29.91,10.0,Calm,Calm,-,N/A,,Clear,0,2012-10-15 05:35:00
12:53 AM,30.2,28.4,93,29.90,10.0,Calm,Calm,-,N/A,,Clear,0,2012-10-15 05:53:00
1:15 AM,28.4,28.4,100,29.91,7.0,Calm,Calm,-,N/A,,Clear,0,2012-10-15 06:15:00
1:35 AM,26.6,26.6,100,29.91,7.0,West,3.5,-,N/A,,Clear,260,2012-10-15 06:35:00
1:53 AM,26.6,26.6,100,29.92,5.0,Calm,Calm,-,N/A,,Clear,0,2012-10-15 06:53:00
2:15 AM,28.4,28.4,100,29.92,4.0,Calm,Calm,-,N/A,,Clear,0,2012-10-15 07:15:00
2:35 AM,28.4,28.4,100,29.91,1.5,WSW,3.5,-,N/A,,Mist,240,2012-10-15 07:35:00
2:53 AM,28.4,28.4,100,29.92,5.0,Calm,Calm,-,N/A,,Clear,0,2012-10-15 07:53:00
3:15 AM,30.2,28.4,93,29.92,5.0,West,4.6,-,N/A,,Clear,260,2012-10-15 08:15:00
3:35 AM,28.4,26.6,93,29.91,4.0,Calm,Calm,-,N/A,,Clear,0,2012-10-15 08:35:00
3:53 AM,26.6,26.6,100,29.90,7.0,Calm,Calm,-,N/A,,Clear,0,2012-10-15 08:53:00
4:15 AM,26.6,26.6,100,29.90,0.5,Calm,Calm,-,N/A,Fog,Light Freezing Fog,0,2012-10-15 09:15:00
4:53 AM,24.8,24.8,100,29.90,0.2,Calm,Calm,-,N/A,Fog,Light Freezing Fog,0,2012-10-15 09:53:00
5:15 AM,26.6,26.6,100,29.90,0.2,Calm,Calm,-,N/A,Fog,Light Freezing Fog,0,2012-10-15 10:15:00
5:53 AM,24.8,23.0,93,29.89,0.2,Calm,Calm,-,N/A,Fog,Light Freezing Fog,0,2012-10-15 10:53:00
6:15 AM,24.8,23.0,93,29.90,0.2,Calm,Calm,-,N/A,Fog,Light Freezing Fog,0,2012-10-15 11:15:00
6:34 AM,23.0,21.2,93,29.90,0.2,Calm,Calm,-,N/A,Fog,Light Freezing Fog,0,2012-10-15 11:34:00
7:15 AM,21.2,21.2,100,29.91,0.2,Calm,Calm,-,N/A,Fog,Light Freezing Fog,0,2012-10-15 12:15:00
7:35 AM,23.0,21.2,93,29.91,0.2,Calm,Calm,-,N/A,Fog,Light Freezing Fog,0,2012-10-15 12:35:00
7:53 AM,23.0,21.2,93,29.91,1.0,Calm,Calm,-,N/A,,Overcast,0,2012-10-15 12:53:00
8:15 AM,24.8,23.0,93,29.92,2.0,Calm,Calm,-,N/A,,Mostly Cloudy,0,2012-10-15 13:15:00
8:35 AM,26.6,26.6,100,29.91,4.0,Calm,Calm,-,N/A,,Clear,0,2012-10-15 13:35:00
8:53 AM,28.4,26.6,93,29.91,5.0,Calm,Calm,-,N/A,,Clear,0,2012-10-15 13:53:00
9:14 AM,30.2,30.2,100,29.91,7.0,Calm,Calm,-,N/A,,Clear,0,2012-10-15 14:14:00
9:35 AM,35.6,33.8,93,29.90,10.0,Calm,Calm,-,N/A,,Clear,0,2012-10-15 14:35:00
9:53 AM,37.4,35.6,93,29.91,10.0,Calm,Calm,-,N/A,,Clear,0,2012-10-15 14:53:00
10:35 AM,46.4,37.4,71,29.90,10.0,South,3.5,-,N/A,,Clear,170,2012-10-15 15:35:00
10:53 AM,48.2,37.4,66,29.91,10.0,SSW,3.5,-,N/A,,Clear,200,2012-10-15 15:53:00
11:14 AM,50.0,37.4,62,29.90,10.0,Calm,Calm,-,N/A,,Clear,0,2012-10-15 16:14:00
11:35 AM,53.6,37.4,54,29.89,10.0,SSE,6.9,-,N/A,,Clear,160,2012-10-15 16:35:00
11:53 AM,53.6,37.4,54,29.88,10.0,SSE,9.2,-,N/A,,Clear,160,2012-10-15 16:53:00
12:15 PM,53.6,37.4,54,29.88,10.0,South,9.2,-,N/A,,Clear,190,2012-10-15 17:15:00
12:35 PM,55.4,37.4,51,29.87,10.0,South,10.4,-,N/A,,Scattered Clouds,180,2012-10-15 17:35:00
1:04 PM,55.4,37.4,51,29.85,10.0,South,10.4,-,N/A,,Clear,170,2012-10-15 18:04:00
1:35 PM,57.2,37.4,48,29.83,10.0,South,10.4,-,N/A,,Scattered Clouds,170,2012-10-15 18:35:00
1:53 PM,57.2,37.4,48,29.82,10.0,Calm,Calm,-,N/A,,Mostly Cloudy,170,2012-10-15 18:53:00
2:15 PM,57.2,37.4,48,29.81,10.0,SSE,9.2,-,N/A,,Mostly Cloudy,160,2012-10-15 19:15:00
2:35 PM,55.4,37.4,51,29.80,10.0,North,-9999.0,-,N/A,,Mostly Cloudy,0,2012-10-15 19:35:00
2:53 PM,55.4,37.4,51,29.80,10.0,SSE,11.5,-,N/A,Rain,Light Rain,160,2012-10-15 19:53:00
3:15 PM,55.4,37.4,51,29.79,10.0,South,9.2,-,N/A,,Overcast,170,2012-10-15 20:15:00
3:35 PM,55.4,35.6,47,29.78,10.0,South,12.7,-,N/A,,Overcast,170,2012-10-15 20:35:00
3:53 PM,55.4,35.6,47,29.78,10.0,South,10.4,-,N/A,,Overcast,170,2012-10-15 20:53:00
4:15 PM,55.4,37.4,51,29.77,10.0,South,12.7,-,N/A,,Overcast,170,2012-10-15 21:15:00
4:35 PM,55.4,35.6,47,29.76,10.0,SSE,12.7,-,N/A,,Overcast,160,2012-10-15 21:35:00
4:52 PM,55.4,35.6,47,29.75,10.0,SSE,12.7,18.4,N/A,,Overcast,160,2012-10-15 21:52:00
5:15 PM,55.4,37.4,51,29.74,10.0,SSE,9.2,-,N/A,,Overcast,160,2012-10-15 22:15:00
5:35 PM,55.4,35.6,47,29.73,10.0,SSE,10.4,-,N/A,,Overcast,160,2012-10-15 22:35:00
5:53 PM,55.4,35.6,47,29.72,10.0,SSE,10.4,-,N/A,,Overcast,160,2012-10-15 22:53:00
6:15 PM,55.4,35.6,47,29.71,10.0,SSE,12.7,18.4,N/A,,Scattered Clouds,150,2012-10-15 23:15:00
6:35 PM,55.4,35.6,47,29.70,10.0,SSE,13.8,19.6,N/A,,Scattered Clouds,150,2012-10-15 23:35:00
6:53 PM,53.6,35.6,51,29.70,10.0,SSE,11.5,-,N/A,,Scattered Clouds,150,2012-10-15 23:53:00
7:15 PM,53.6,35.6,51,29.70,10.0,SSE,12.7,-,N/A,,Mostly Cloudy,150,2012-10-16 00:15:00
7:35 PM,53.6,35.6,51,29.70,10.0,SE,10.4,-,N/A,,Scattered Clouds,140,2012-10-16 00:35:00
7:52 PM,53.6,35.6,51,29.69,10.0,SE,8.1,-,N/A,,Mostly Cloudy,140,2012-10-16 00:52:00
8:15 PM,53.6,35.6,51,29.68,10.0,SSE,11.5,-,N/A,,Scattered Clouds,150,2012-10-16 01:15:00
8:35 PM,53.6,35.6,51,29.68,10.0,SSE,11.5,-,N/A,,Scattered Clouds,150,2012-10-16 01:35:00
8:52 PM,53.6,35.6,51,29.67,10.0,SSE,10.4,-,N/A,,Clear,150,2012-10-16 01:52:00
9:15 PM,51.8,35.6,54,29.67,10.0,SSE,9.2,-,N/A,,Clear,150,2012-10-16 02:15:00
9:34 PM,51.8,35.6,54,29.67,10.0,SSE,8.1,-,N/A,,Clear,160,2012-10-16 02:34:00
9:53 PM,51.8,35.6,54,29.66,10.0,North,-9999.0,-,N/A,,Clear,0,2012-10-16 02:53:00
10:15 PM,53.6,35.6,51,29.65,10.0,SSE,5.8,-,N/A,,Scattered Clouds,160,2012-10-16 03:15:00
10:34 PM,55.4,35.6,47,29.64,10.0,SSE,9.2,-,N/A,,Clear,160,2012-10-16 03:34:00
11:15 PM,55.4,35.6,47,29.62,10.0,SSE,10.4,17.3,N/A,,Scattered Clouds,160,2012-10-16 04:15:00
11:35 PM,55.4,35.6,47,29.62,10.0,South,9.2,17.3,N/A,,Overcast,180,2012-10-16 04:35:00
11:52 PM,55.4,37.4,51,29.61,10.0,South,11.5,-,N/A,,Overcast,180,2012-10-16 04:52:00